📊 Raw Sensor Data
Showing records 39301 to 39325 of 84,943 total
| ID | Distance (ft) | Battery V | Battery A | Int Temp (°F) | Int Humid (%) | Ext Temp (°F) | Solar V | RSSI | SNR | Time Stamp |
|---|---|---|---|---|---|---|---|---|---|---|
| 45655 | 15.4 | 3.85 | -5 | 61 | 48 | 62 | 0.00 | -69 | 8 | 07/07/2025 10:00 PM |
| 45654 | 15.4 | 3.85 | -5 | 62 | 49 | 62 | 0.00 | -66 | 7 | 07/07/2025 09:45 PM |
| 45653 | 15.4 | 3.85 | -5 | 62 | 50 | 63 | 0.00 | -73 | 8 | 07/07/2025 09:30 PM |
| 45652 | 15.4 | 3.90 | -5 | 63 | 51 | 63 | 0.00 | -73 | 8 | 07/07/2025 09:15 PM |
| 45651 | 15.4 | 3.85 | -5 | 65 | 52 | 64 | 0.10 | -72 | 8 | 07/07/2025 09:00 PM |
| 45650 | 15.4 | 3.85 | -5 | 66 | 54 | 65 | 1.40 | -75 | 8 | 07/07/2025 08:45 PM |
| 45649 | 15.4 | 3.90 | -10 | 69 | 55 | 66 | 2.70 | -72 | 8 | 07/07/2025 08:30 PM |
| 45648 | 15.5 | 3.91 | 0 | 74 | 54 | 69 | 4.50 | -71 | 7 | 07/07/2025 08:15 PM |
| 45647 | 15.5 | 3.92 | 0 | 78 | 52 | 72 | 4.50 | -74 | 7 | 07/07/2025 08:00 PM |
| 45646 | 15.5 | 3.87 | 6 | 82 | 52 | 75 | 4.50 | -75 | 8 | 07/07/2025 07:45 PM |
| 45645 | 15.5 | 3.94 | 10 | 84 | 52 | 78 | 4.50 | -71 | 7 | 07/07/2025 07:30 PM |
| 45644 | 15.6 | 3.95 | -5 | 86 | 52 | 78 | 4.60 | -73 | 8 | 07/07/2025 07:15 PM |
| 45643 | 15.6 | 3.92 | 27 | 88 | 51 | 79 | 4.50 | -74 | 8 | 07/07/2025 07:00 PM |
| 45642 | 15.6 | 3.97 | 42 | 90 | 51 | 81 | 4.50 | -74 | 8 | 07/07/2025 06:45 PM |
| 45641 | 15.6 | 4.03 | 64 | 91 | 51 | 83 | 4.50 | -73 | 7 | 07/07/2025 06:30 PM |
| 45640 | 15.6 | 3.89 | 8 | 93 | 50 | 84 | 5.10 | -72 | 8 | 07/07/2025 06:15 PM |
| 45639 | 15.6 | 4.10 | 8 | 95 | 49 | 85 | 5.10 | -72 | 8 | 07/07/2025 06:00 PM |
| 45638 | 15.6 | 3.88 | 0 | 96 | 49 | 88 | 5.10 | -75 | 7 | 07/07/2025 05:45 PM |
| 45637 | 15.6 | 3.89 | 8 | 97 | 47 | 89 | 5.10 | -74 | 7 | 07/07/2025 05:30 PM |
| 45636 | 15.7 | 3.88 | 8 | 98 | 47 | 90 | 5.10 | -72 | 7 | 07/07/2025 05:15 PM |
| 45635 | 15.7 | 3.88 | 8 | 97 | 47 | 89 | 5.10 | -73 | 7 | 07/07/2025 05:00 PM |
| 45634 | 15.7 | 3.93 | 8 | 98 | 46 | 90 | 5.10 | -75 | 8 | 07/07/2025 04:45 PM |
| 45633 | 15.7 | 3.96 | 8 | 97 | 45 | 89 | 5.10 | -73 | 8 | 07/07/2025 04:30 PM |
| 45632 | 15.7 | 3.88 | 6 | 97 | 45 | 89 | 5.10 | -72 | 8 | 07/07/2025 04:15 PM |
| 45631 | 15.7 | 3.88 | 7 | 98 | 44 | 89 | 5.10 | -74 | 8 | 07/07/2025 04:00 PM |